SWA2636 KCOS-KDEN

Flight info

Callsign SWA2636
Flight time 0h 28m
Altitude 12000
Route ADANE V389 LUFSE/N0379F150 JEFEL/N0374F140
Aircraft B737/M-SDE2E3FGHIRWXY/LB1

Departure

Time 2026-04-22 23:48
Airport City of Colorado Springs Municipal Airport (KCOS)

Arrival

Time 2026-04-23 00:16
Airport Denver International Airport (KDEN)
Time Latitude Longitude Altitude Speed Heading
2026-04-22 23:02 38.79847 -104.70017 6193 ft 0 kts 268°
2026-04-22 23:30 38.79847 -104.70012 6193 ft 3 kts 268°
2026-04-22 23:31 38.79847 -104.69982 6193 ft 4 kts 276°
2026-04-22 23:31 38.79842 -104.69952 6192 ft 4 kts 302°
2026-04-22 23:31 38.79827 -104.69935 6192 ft 3 kts 356°
2026-04-22 23:31 38.79823 -104.69934 6192 ft 1 kts
2026-04-22 23:36 38.79830 -104.69934 6191 ft 3 kts
2026-04-22 23:36 38.79863 -104.69934 6193 ft 6 kts
2026-04-22 23:36 38.79908 -104.69934 6193 ft 6 kts 360°
2026-04-22 23:37 38.79951 -104.69934 6193 ft 6 kts 360°
2026-04-22 23:37 38.79995 -104.69931 6193 ft 7 kts 11°
2026-04-22 23:37 38.80030 -104.69883 6191 ft 8 kts 76°
2026-04-22 23:37 38.80035 -104.69813 6193 ft 8 kts 86°
2026-04-22 23:38 38.80052 -104.69744 6193 ft 8 kts 46°
2026-04-22 23:38 38.80106 -104.69727 6193 ft 8 kts
2026-04-22 23:38 38.80162 -104.69727 6193 ft 8 kts
2026-04-22 23:38 38.80218 -104.69726 6193 ft 10 kts
2026-04-22 23:39 38.80299 -104.69725 6192 ft 13 kts
2026-04-22 23:39 38.80395 -104.69724 6193 ft 15 kts
2026-04-22 23:39 38.80497 -104.69723 6193 ft 14 kts
2026-04-22 23:39 38.80605 -104.69724 6193 ft 17 kts 359°
2026-04-22 23:40 38.80725 -104.69726 6193 ft 17 kts 359°
2026-04-22 23:40 38.80842 -104.69727 6194 ft 16 kts 360°
2026-04-22 23:40 38.80953 -104.69726 6194 ft 16 kts
2026-04-22 23:40 38.81061 -104.69727 6193 ft 15 kts 354°
2026-04-22 23:41 38.81147 -104.69793 6193 ft 15 kts 314°
2026-04-22 23:41 38.81217 -104.69884 6192 ft 14 kts 315°
2026-04-22 23:41 38.81287 -104.69973 6192 ft 15 kts 315°
2026-04-22 23:41 38.81365 -104.70072 6192 ft 16 kts 315°
2026-04-22 23:42 38.81440 -104.70168 6193 ft 15 kts 315°
2026-04-22 23:42 38.81512 -104.70260 6193 ft 14 kts 315°
2026-04-22 23:42 38.81581 -104.70348 6193 ft 14 kts 315°
2026-04-22 23:42 38.81647 -104.70432 6192 ft 13 kts 315°
2026-04-22 23:43 38.81710 -104.70512 6193 ft 13 kts 315°
2026-04-22 23:43 38.81772 -104.70590 6192 ft 12 kts 315°
2026-04-22 23:43 38.81833 -104.70666 6192 ft 12 kts 315°
2026-04-22 23:43 38.81892 -104.70741 6192 ft 12 kts 315°
2026-04-22 23:44 38.81949 -104.70814 6192 ft 11 kts 315°
2026-04-22 23:44 38.82005 -104.70885 6192 ft 11 kts 315°
2026-04-22 23:44 38.82059 -104.70955 6192 ft 11 kts 315°
2026-04-22 23:44 38.82111 -104.71022 6192 ft 11 kts 315°
2026-04-22 23:45 38.82162 -104.71088 6192 ft 10 kts 315°
2026-04-22 23:45 38.82212 -104.71152 6192 ft 10 kts 315°
2026-04-22 23:45 38.82260 -104.71214 6191 ft 10 kts 315°
2026-04-22 23:45 38.82307 -104.71274 6193 ft 9 kts 315°
2026-04-22 23:46 38.82352 -104.71333 6193 ft 9 kts 314°
2026-04-22 23:46 38.82391 -104.71396 6193 ft 9 kts 293°
2026-04-22 23:46 38.82395 -104.71473 6194 ft 9 kts 266°
2026-04-22 23:46 38.82390 -104.71549 6195 ft 8 kts 258°
2026-04-22 23:47 38.82355 -104.71586 6194 ft 8 kts 137°
2026-04-22 23:47 38.82317 -104.71535 6195 ft 7 kts 135°
2026-04-22 23:47 38.82312 -104.71529 6195 ft 5 kts 135°
2026-04-22 23:47 38.82109 -104.71270 6194 ft 78 kts 135°
2026-04-22 23:48 38.81558 -104.70576 6195 ft 141 kts 136°
2026-04-22 23:48 38.80751 -104.69500 6293 ft 185 kts 139°
2026-04-22 23:48 38.79859 -104.68255 6957 ft 195 kts 139°
2026-04-22 23:48 38.78940 -104.66917 7565 ft 207 kts 130°
2026-04-22 23:49 38.78551 -104.65719 7732 ft 237 kts 103°
2026-04-22 23:49 38.78823 -104.63475 7924 ft 280 kts 65°
2026-04-22 23:49 38.80177 -104.61532 8201 ft 309 kts 30°
2026-04-22 23:49 38.82074 -104.60122 8845 ft 323 kts 32°
2026-04-22 23:50 38.83935 -104.58512 9839 ft 321 kts 28°
2026-04-22 23:50 38.85923 -104.57161 10723 ft 328 kts 23°
2026-04-22 23:50 38.88026 -104.55865 11311 ft 342 kts 22°
2026-04-22 23:50 38.90256 -104.54509 11585 ft 367 kts 23°
2026-04-22 23:51 38.92624 -104.53045 11923 ft 387 kts 23°
2026-04-22 23:51 38.95043 -104.51515 12050 ft 395 kts 24°
2026-04-22 23:51 38.97573 -104.49890 12074 ft 417 kts 24°
2026-04-22 23:51 39.00204 -104.48180 12056 ft 424 kts 25°
2026-04-22 23:52 39.02849 -104.46446 12036 ft 428 kts 25°
2026-04-22 23:52 39.05505 -104.44699 12002 ft 430 kts 25°
2026-04-22 23:52 39.08167 -104.42946 11960 ft 429 kts 25°
2026-04-22 23:52 39.10820 -104.41198 11934 ft 428 kts 25°
2026-04-22 23:53 39.13475 -104.39449 11912 ft 428 kts 25°
2026-04-22 23:53 39.16128 -104.37701 11877 ft 428 kts 25°
2026-04-22 23:53 39.18787 -104.35948 11841 ft 429 kts 24°
2026-04-22 23:53 39.21410 -104.34218 11804 ft 429 kts 24°
2026-04-22 23:54 39.24063 -104.32466 11772 ft 429 kts 25°
2026-04-22 23:54 39.26721 -104.30710 11765 ft 429 kts 25°
2026-04-22 23:54 39.29379 -104.28952 11758 ft 428 kts 25°
2026-04-22 23:54 39.32029 -104.27199 11761 ft 428 kts 25°
2026-04-22 23:55 39.34760 -104.25712 11752 ft 424 kts 12°
2026-04-22 23:55 39.37653 -104.25161 11780 ft 418 kts 358°
2026-04-22 23:55 39.40531 -104.25488 11771 ft 414 kts 343°
2026-04-22 23:55 39.43316 -104.26355 11754 ft 407 kts 341°
2026-04-22 23:56 39.45996 -104.27242 11737 ft 387 kts 341°
2026-04-22 23:56 39.48535 -104.28089 11733 ft 368 kts 340°
2026-04-22 23:56 39.50981 -104.28904 11733 ft 361 kts 340°
2026-04-22 23:56 39.53422 -104.29714 11738 ft 362 kts 340°
2026-04-22 23:57 39.55862 -104.30520 11746 ft 362 kts 340°
2026-04-22 23:57 39.58307 -104.31320 11748 ft 362 kts 341°
2026-04-22 23:57 39.60718 -104.32105 11754 ft 362 kts 341°
2026-04-22 23:57 39.63169 -104.32900 11763 ft 361 kts 341°
2026-04-22 23:58 39.65610 -104.33690 11765 ft 361 kts 341°
2026-04-22 23:58 39.68049 -104.34479 11758 ft 361 kts 341°
2026-04-22 23:58 39.70469 -104.35260 11708 ft 353 kts 341°
2026-04-22 23:58 39.72811 -104.36013 11709 ft 341 kts 341°
2026-04-22 23:59 39.75077 -104.36742 11707 ft 330 kts 340°
2026-04-22 23:59 39.77294 -104.37460 11707 ft 327 kts 340°
2026-04-22 23:59 39.79508 -104.38182 11722 ft 330 kts 340°
2026-04-22 23:59 39.81717 -104.38903 11725 ft 332 kts 340°
2026-04-23 00:00 39.86214 -104.40369 11701 ft 334 kts 340°
2026-04-23 00:00 39.88469 -104.41102 11696 ft 333 kts 340°
2026-04-23 00:00 39.90713 -104.41832 11697 ft 332 kts 340°
2026-04-23 00:01 39.92931 -104.42552 11690 ft 324 kts 340°
2026-04-23 00:01 39.95088 -104.43251 11683 ft 316 kts 340°
2026-04-23 00:01 39.97209 -104.43941 11816 ft 312 kts 340°
2026-04-23 00:01 39.99358 -104.44644 11812 ft 312 kts 340°
2026-04-23 00:02 40.01418 -104.45320 11813 ft 312 kts 341°
2026-04-23 00:02 40.03529 -104.46011 11799 ft 313 kts 341°
2026-04-23 00:02 40.05637 -104.46701 11782 ft 313 kts 342°
2026-04-23 00:02 40.07747 -104.47392 11777 ft 313 kts 342°
2026-04-23 00:03 40.09860 -104.48084 11693 ft 313 kts 342°
2026-04-23 00:03 40.11941 -104.48766 11694 ft 312 kts 341°
2026-04-23 00:03 40.14040 -104.49453 11677 ft 308 kts 341°
2026-04-23 00:03 40.16082 -104.50119 11672 ft 297 kts 341°
2026-04-23 00:04 40.18044 -104.50760 11673 ft 287 kts 341°
2026-04-23 00:04 40.19972 -104.51395 11680 ft 285 kts 341°
2026-04-23 00:04 40.21898 -104.52030 11712 ft 286 kts 341°
2026-04-23 00:04 40.23828 -104.52666 11704 ft 286 kts 341°
2026-04-23 00:05 40.25762 -104.53304 11700 ft 287 kts 341°
2026-04-23 00:05 40.27679 -104.53934 11691 ft 281 kts 341°
2026-04-23 00:05 40.29538 -104.54543 11681 ft 270 kts 340°
2026-04-23 00:05 40.31327 -104.55130 11683 ft 262 kts 340°
2026-04-23 00:06 40.32921 -104.56125 11692 ft 248 kts 311°
2026-04-23 00:06 40.33874 -104.57917 11708 ft 238 kts 285°
2026-04-23 00:06 40.34180 -104.59990 11696 ft 228 kts 266°
2026-04-23 00:06 40.33945 -104.61985 11714 ft 220 kts 255°
2026-04-23 00:07 40.33580 -104.63965 11707 ft 226 kts 255°
2026-04-23 00:07 40.32972 -104.65833 11693 ft 223 kts 232°
2026-04-23 00:07 40.31848 -104.67227 11513 ft 224 kts 217°
2026-04-23 00:07 40.30537 -104.68283 11376 ft 224 kts 213°
2026-04-23 00:08 40.29118 -104.69078 11121 ft 224 kts 195°
2026-04-23 00:08 40.27579 -104.69238 10867 ft 221 kts 186°
2026-04-23 00:08 40.26057 -104.69234 10597 ft 216 kts 185°
2026-04-23 00:08 40.24566 -104.69227 10341 ft 212 kts 187°
2026-04-23 00:09 40.23105 -104.69232 10100 ft 209 kts 187°
2026-04-23 00:09 40.21658 -104.69243 9871 ft 207 kts 187°
2026-04-23 00:09 40.20218 -104.69258 9752 ft 205 kts 188°
2026-04-23 00:09 40.18780 -104.69275 9732 ft 208 kts 187°
2026-04-23 00:10 40.17339 -104.69292 9711 ft 206 kts 186°
2026-04-23 00:10 40.15920 -104.69307 9664 ft 202 kts 185°
2026-04-23 00:10 40.14521 -104.69322 9445 ft 197 kts 186°
2026-04-23 00:10 40.13194 -104.69335 9254 ft 190 kts 186°
2026-04-23 00:11 40.11898 -104.69349 9040 ft 183 kts 187°
2026-04-23 00:11 40.10636 -104.69364 8944 ft 178 kts 187°
2026-04-23 00:11 40.09378 -104.69384 8821 ft 186 kts 186°
2026-04-23 00:11 40.08059 -104.69400 8604 ft 192 kts 187°
2026-04-23 00:12 40.06722 -104.69414 8453 ft 190 kts 187°
2026-04-23 00:12 40.05423 -104.69426 8204 ft 182 kts 187°
2026-04-23 00:12 40.04183 -104.69438 8003 ft 175 kts 187°
2026-04-23 00:12 40.02988 -104.69451 7770 ft 167 kts 187°
2026-04-23 00:13 40.01829 -104.69467 7662 ft 170 kts 187°
2026-04-23 00:13 40.00629 -104.69482 7388 ft 172 kts 187°
2026-04-23 00:13 39.99450 -104.69494 7183 ft 167 kts 188°
2026-04-23 00:13 39.98319 -104.69505 6977 ft 159 kts 187°
2026-04-23 00:14 39.97244 -104.69517 6798 ft 150 kts 188°
2026-04-23 00:14 39.96225 -104.69530 6634 ft 145 kts 189°
2026-04-23 00:14 39.95221 -104.69542 6449 ft 143 kts 189°
2026-04-23 00:14 39.94208 -104.69555 6322 ft 144 kts 189°
2026-04-23 00:15 39.93202 -104.69566 6170 ft 147 kts 189°
2026-04-23 00:15 39.92176 -104.69577 5952 ft 147 kts 191°
2026-04-23 00:15 39.91137 -104.69591 5746 ft 153 kts 190°
2026-04-23 00:15 39.90054 -104.69599 5529 ft 154 kts 190°
2026-04-23 00:16 39.89019 -104.69622 5377 ft 140 kts 183°
2026-04-23 00:16 39.88148 -104.69630 5364 ft 105 kts 178°
2026-04-23 00:16 39.87667 -104.69536 5363 ft 37 kts 150°
2026-04-23 00:16 39.87524 -104.69425 5364 ft 18 kts 155°
2026-04-23 00:17 39.87400 -104.69418 5364 ft 18 kts 181°
2026-04-23 00:17 39.87279 -104.69417 5363 ft 17 kts 177°
2026-04-23 00:17 39.87163 -104.69420 5364 ft 16 kts 182°
2026-04-23 00:17 39.87051 -104.69422 5364 ft 16 kts 180°
2026-04-23 00:18 39.86943 -104.69422 5363 ft 15 kts 180°
2026-04-23 00:18 39.86839 -104.69423 5364 ft 15 kts 181°
2026-04-23 00:18 39.86732 -104.69425 5365 ft 15 kts 181°
2026-04-23 00:18 39.86629 -104.69427 5364 ft 14 kts 180°
2026-04-23 00:19 39.86529 -104.69410 5364 ft 17 kts 163°
2026-04-23 00:19 39.86409 -104.69339 5362 ft 21 kts 150°
2026-04-23 00:19 39.86279 -104.69243 5364 ft 21 kts 150°
2026-04-23 00:19 39.86153 -104.69149 5364 ft 21 kts 150°
2026-04-23 00:20 39.86048 -104.69055 5362 ft 17 kts 124°
2026-04-23 00:20 39.86037 -104.68908 5365 ft 16 kts 90°
2026-04-23 00:20 39.86036 -104.68764 5363 ft 16 kts 90°
2026-04-23 00:20 39.86035 -104.68615 5365 ft 16 kts 90°
2026-04-23 00:21 39.86060 -104.68513 5364 ft 11 kts 20°
2026-04-23 00:21 39.86136 -104.68503 5363 ft 11 kts 358°
2026-04-23 00:21 39.86212 -104.68506 5364 ft 11 kts 359°
2026-04-23 00:21 39.86285 -104.68506 5364 ft 10 kts 359°
2026-04-23 00:22 39.86357 -104.68506 5364 ft 10 kts
2026-04-23 00:22 39.86419 -104.68479 5365 ft 10 kts 51°
2026-04-23 00:22 39.86428 -104.68393 5365 ft 10 kts 90°
2026-04-23 00:22 39.86425 -104.68311 5363 ft 9 kts 98°
2026-04-23 00:23 39.86407 -104.68231 5362 ft 9 kts 109°
2026-04-23 00:23 39.86387 -104.68160 5363 ft 9 kts 135°
2026-04-23 00:23 39.86333 -104.68136 5364 ft 8 kts 178°
2026-04-23 00:23 39.86275 -104.68134 5364 ft 9 kts 179°
2026-04-23 00:24 39.86193 -104.68120 5364 ft 14 kts 163°
2026-04-23 00:24 39.86138 -104.68039 5365 ft 12 kts 82°
2026-04-23 00:24 39.86139 -104.67935 5365 ft 11 kts 90°
2026-04-23 00:24 39.86138 -104.67826 5365 ft 13 kts 90°
2026-04-23 00:25 39.86137 -104.67698 5365 ft 15 kts 90°
2026-04-23 00:25 39.86136 -104.67557 5362 ft 15 kts 90°
2026-04-23 00:25 39.86134 -104.67420 5365 ft 15 kts 90°
2026-04-23 00:25 39.86133 -104.67290 5365 ft 14 kts 90°
2026-04-23 00:26 39.86132 -104.67165 5365 ft 13 kts 91°
2026-04-23 00:26 39.86131 -104.67046 5363 ft 13 kts 91°
2026-04-23 00:26 39.86131 -104.66931 5365 ft 13 kts 89°
2026-04-23 00:26 39.86131 -104.66807 5365 ft 14 kts 90°
2026-04-23 00:27 39.86130 -104.66684 5365 ft 13 kts 90°
2026-04-23 00:27 39.86160 -104.66580 5363 ft 13 kts 30°
2026-04-23 00:27 39.86251 -104.66574 5364 ft 14 kts 360°
2026-04-23 00:27 39.86356 -104.66575 5364 ft 16 kts 358°
2026-04-23 00:28 39.86412 -104.66643 5363 ft 11 kts 270°
2026-04-23 00:28 39.86413 -104.66742 5365 ft 12 kts 270°
2026-04-23 00:28 39.86413 -104.66848 5365 ft 12 kts 270°
2026-04-23 00:28 39.86414 -104.66952 5364 ft 11 kts 270°
2026-04-23 00:29 39.86415 -104.67050 5365 ft 11 kts 270°
2026-04-23 00:29 39.86416 -104.67144 5365 ft 8 kts 270°
2026-04-23 00:29 39.86414 -104.67164 5365 ft 5 kts 261°
2026-04-23 00:29 39.86386 -104.67197 5363 ft 6 kts 203°
2026-04-23 00:30 39.86362 -104.67208 5363 ft 0 kts 199°
2026-04-23 00:30 39.86361 -104.67209 5363 ft 1 kts 199°
2026-04-23 00:30 39.86360 -104.67209 5361 ft 0 kts 199°